Temp
3 3 4 4 4 4 4 4 4 5 5 5 6 6 7 8 7 7 8 8 8 8 8 8 8 8 8 8 8 7 7 8 9 9 8 8 8 8 8 8 8 9 8 8 8
4 3 3 3 3 4 4 4 5 5 5 6 6 6 7 8 8 8 8 8 8 7 7 8 8 8 8 7 7 7 7 8 8 8 8 8 8 8 8 8 8 8 8 7 8
3 4 4 4 4 4 4 4 5 5 5 6 6 7 7 8 8 7 8 7 7 7 7 7 8 8 8 7 7 7 8 7 7 8 8 9 9 8 7 9 9 8 8 8 8
3 3 4 3 3 4 4 4 4 5 5 6 6 7 7 7 7 6 7 7 7 7 7 7 7 7 7 6 6 7 7 7 7 7 8 8 9 8 7 9 8 7 7 8 8
3 3 3 4 3 4 4 4 4 5 5 6 6 7 7 7 7 7 7 7 7 7 7 7 6 7 7 6 5 5 6 6 7 7 7 7 7 7 8 9 7 7 6 6 7
2 3 3 3 3 3 4 4 4 4 5 5 6 6 7 7 6 7 7 7 7 7 6 6 6 6 6 6 5 5 5 5 6 6 6 7 6 6 8 7 6 6 6 6 7
2 3 3 3 3 3 3 4 4 4 4 5 5 6 6 6 6 6 7 7 7 7 6 6 5 5 4 5 4 5 5 5 5 6 6 6 6 7 6 5 5 6 6 7 7
2 3 3 3 3 3 3 3 3 4 4 4 5 5 7 6 6 7 6 6 6 6 6 4 4 4 3 4 4 3 3 3 4 4 5 4 4 4 5 5 5 5 6 6 7
2 2 3 3 3 2 3 3 3 3 4 4 4 5 6 6 6 5 5 5 5 5 5 4 4 4 3 3 2 2 3 3 2 3 3 4 3 3 3 4 4 4 5 5 6
1 2 2 1 1 2 2 2 2 2 3 3 4 4 5 5 4 4 5 6 5 5 5 4 3 2 3 3 2 3 2 1 1 2 2 2 3 3 3 3 3 4 4 5 5
0 0 1 1 1 1 1 1 1 2 2 3 3 4 3 4 3 4 5 4 4 3 3 3 2 3 4 2 1 0 0 0 1 1 1 1 2 2 2 2 3 4 3 3 4
-0 -0 0 1 1 1 0 1 1 1 2 3 3 4 4 3 4 4 4 3 4 3 2 2 1 2 2 1 -0 -0 -0 -0 0 1 1 1 1 1 1 2 2 2 3 3 3
-1 -1 -1 -0 -0 -0 -0 -0 0 1 1 3 4 4 4 4 4 5 2 2 2 2 2 1 0 0 0 -0 -0 -0 -0 -0 -0 -0 0 1 1 2 3 2 1 2 2 2 2
-2 -1 -1 -1 -1 -1 -1 -1 -0 -0 0 2 3 3 3 3 3 3 4 2 1 2 0 -1 0 0 -1 -1 -1 -1 -1 -1 -1 -0 -0 -0 -0 1 1 0 1 1 1 1 1
-2 -2 -2 -2 -1 -2 -1 -1 -1 -1 -4 2 1 2 2 2 2 3 3 2 2 2 0 0 1 1 -1 1 -1 -1 -1 -1 -1 -1 -0 -1 -1 1 -0 -0 0 0 0 -0 0
-3 -3 -2 -2 -2 -3 -2 -2 -2 -1 -3 1 1 2 2 2 2 1 1 1 0 -1 -1 -1 -1 -1 -0 -0 -0 -1 -1 -1 -1 -1 -3 -0 -1 0 -1 -2 -1 -1 -0 -1 -2
-4 -3 -3 -3 -3 -3 -3 -3 -3 -2 -0 1 1 1 1 1 1 1 1 1 1 0 0 0 0 0 -0 -1 0 -0 -1 -2 -3 -3 -3 -1 -1 -0 -1 -3 -2 -2 -3 -3 -3
-4 -4 -3 -3 -4 -4 -5 -4 -4 -1 -0 1 0 -0 -0 -0 -0 0 0 -0 0 0 -0 -1 -0 1 0 0 0 0 0 -1 -3 -3 -3 -1 -1 -0 -1 -3 -3 -3 -3 -4 -4
-6 -5 -4 -4 -5 -5 -6 -7 -3 -1 -1 -1 -0 -0 -1 -1 -1 -0 -0 0 0 1 -1 -1 -1 0 0 0 0 -0 -1 -0 -1 -3 -4 -2 -2 -2 -3 -3 -2 -3 -3 -2 -3
-6 -5 -4 -6 -6 -7 -8 -6 -3 -2 -3 -3 -2 -1 -1 -0 -1 -1 -1 0 0 0 0 -0 -0 -0 0 -0 -0 -0 -0 -1 -2 -4 -3 -3 -2 -1 -2 -2 -2 -4 -4 -3 -3
-7 -6 -5 -7 -7 -8 -8 -5 -3 -3 -4 -3 -3 -3 -2 -2 -2 -2 -2 -1 -0 -0 0 -0 -0 -1 -1 -1 -1 -1 -1 -1 -2 -3 -4 -4 -2 -1 -2 -2 -2 -3 -3 -3 -3
-9 -7 -7 -7 -8 -8 -7 -4 -4 -4 -5 -5 -4 -4 -3 -3 -3 -3 -3 -2 -1 -1 -1 -1 -1 -1 -1 -2 -1 -1 -1 -1 -2 -3 -3 -3 -3 -2 -2 -3 -3 -3 -3 -3 -4
-10 -9 -9 -9 -8 -8 -6 -5 -5 -5 -6 -6 -5 -5 -4 -4 -4 -4 -3 -2 -2 -2 -1 -1 -2 -2 -3 -3 -2 -2 -2 -2 -2 -2 -3 -4 -3 -2 -3 -3 -4 -4 -4 -4 -4
-10 -11 -10 -10 -8 -8 -7 -6 -6 -5 -5 -6 -6 -6 -5 -5 -5 -4 -4 -3 -3 -2 -2 -2 -2 -1 -1 -1 -1 -2 -2 -3 -3 -3 -4 -4 -4 -3 -4 -5 -4 -4 -5 -5 -5
-11 -10 -10 -10 -9 -9 -8 -7 -7 -6 -6 -7 -7 -6 -6 -5 -5 -4 -4 -4 -4 -3 -3 -2 -2 -2 -2 -2 -2 -3 -3 -4 -4 -4 -6 -5 -4 -4 -4 -4 -4 -5 -5 -6 -6
-11 -11 -11 -10 -10 -9 -9 -8 -6 -5 -7 -7 -7 -6 -6 -6 -5 -5 -4 -4 -4 -5 -3 -3 -3 -3 -3 -4 -4 -5 -5 -4 -4 -4 -5 -5 -4 -4 -4 -4 -5 -5 -6 -6 -6
-11 -11 -11 -10 -10 -10 -8 -7 -6 -6 -7 -6 -7 -7 -6 -5 -6 -5 -5 -5 -5 -4 -5 -5 -4 -5 -5 -5 -6 -5 -5 -4 -4 -4 -5 -5 -4 -4 -4 -5 -6 -6 -7 -7 -7
Height
3142 3141 3141 3141 3141 3142 3142 3142 3142 3141 3140 3139 3138 3136 3135 3135 3135 3133 3132 3131 3130 3130 3129 3129 3128 3128 3128 3129 3129 3129 3129 3126 3129 3130 3128 3128 3128 3129 3128 3127 3129 3130 3129 3128 3127
3137 3137 3137 3138 3138 3138 3138 3138 3138 3138 3136 3135 3133 3133 3132 3132 3131 3130 3129 3126 3126 3127 3127 3127 3126 3125 3125 3125 3126 3126 3123 3125 3126 3127 3125 3124 3123 3121 3123 3122 3125 3125 3126 3125 3124
3132 3132 3133 3133 3134 3134 3134 3133 3133 3133 3132 3129 3128 3129 3129 3129 3128 3125 3125 3124 3124 3124 3124 3123 3122 3122 3121 3123 3123 3121 3119 3122 3121 3122 3121 3117 3118 3118 3115 3118 3122 3122 3123 3123 3120
3125 3125 3126 3126 3127 3128 3127 3127 3128 3128 3126 3123 3124 3124 3124 3125 3126 3123 3123 3122 3121 3120 3121 3119 3119 3118 3117 3119 3118 3117 3116 3117 3117 3116 3114 3114 3113 3112 3114 3116 3116 3116 3116 3115 3114
3118 3119 3120 3120 3121 3121 3121 3122 3121 3121 3119 3118 3118 3119 3119 3121 3120 3118 3117 3117 3117 3117 3117 3116 3115 3114 3112 3112 3113 3112 3112 3112 3112 3112 3110 3109 3109 3109 3106 3112 3111 3110 3109 3107 3106
3111 3112 3113 3114 3115 3115 3116 3115 3115 3114 3114 3112 3112 3113 3114 3116 3113 3112 3114 3112 3113 3113 3113 3112 3111 3109 3108 3108 3109 3109 3107 3107 3106 3106 3107 3104 3102 3101 3105 3105 3103 3103 3102 3101 3099
3105 3105 3106 3107 3109 3110 3109 3109 3108 3108 3108 3106 3106 3106 3108 3109 3107 3107 3107 3108 3107 3108 3109 3106 3106 3105 3104 3105 3104 3103 3101 3101 3102 3103 3100 3099 3093 3098 3098 3099 3097 3096 3095 3096 3095
3099 3099 3100 3101 3102 3103 3103 3103 3103 3103 3101 3101 3100 3100 3101 3102 3102 3101 3102 3102 3101 3102 3104 3102 3100 3100 3100 3102 3101 3100 3099 3096 3097 3098 3098 3094 3083 3092 3094 3091 3090 3090 3090 3089 3089
3091 3093 3094 3096 3096 3096 3097 3098 3098 3096 3096 3095 3095 3095 3096 3097 3096 3096 3097 3098 3099 3099 3099 3099 3096 3096 3097 3097 3096 3096 3094 3095 3093 3094 3092 3089 3081 3086 3087 3086 3084 3084 3086 3085 3083
3085 3086 3088 3090 3091 3091 3092 3093 3092 3090 3089 3090 3089 3094 3092 3093 3091 3092 3093 3092 3093 3093 3095 3095 3091 3090 3093 3092 3091 3092 3092 3092 3092 3093 3090 3083 3072 3080 3082 3080 3080 3079 3079 3078 3076
3079 3080 3081 3083 3085 3086 3088 3088 3088 3086 3083 3085 3085 3087 3088 3086 3084 3087 3086 3084 3085 3087 3087 3087 3085 3083 3090 3089 3088 3087 3086 3086 3089 3090 3085 3078 3070 3075 3077 3076 3075 3073 3071 3068 3068
3072 3074 3075 3077 3080 3081 3082 3083 3080 3079 3074 3078 3079 3074 3082 3078 3076 3082 3080 3080 3081 3081 3083 3083 3077 3083 3084 3084 3083 3082 3081 3082 3083 3084 3083 3076 3065 3066 3071 3071 3070 3066 3065 3061 3061
3065 3067 3069 3071 3073 3076 3078 3076 3076 3074 3069 3068 3071 3069 3073 3072 3069 3076 3072 3072 3072 3075 3077 3075 3078 3079 3079 3080 3079 3078 3078 3076 3080 3079 3077 3074 3060 3059 3065 3064 3060 3059 3058 3056 3054
3058 3060 3063 3066 3069 3072 3072 3072 3072 3072 3067 3061 3061 3061 3063 3065 3066 3065 3065 3067 3070 3071 3074 3072 3072 3072 3074 3075 3077 3075 3077 3075 3074 3077 3071 3071 3062 3058 3057 3056 3054 3052 3051 3049 3049
3052 3054 3057 3059 3063 3067 3069 3069 3069 3072 3071 3060 3057 3058 3060 3063 3064 3064 3064 3064 3065 3067 3071 3068 3069 3069 3069 3070 3072 3072 3073 3072 3070 3069 3067 3065 3069 3053 3051 3050 3049 3047 3045 3045 3044
3046 3048 3052 3055 3059 3061 3062 3064 3067 3072 3062 3056 3055 3056 3057 3059 3060 3061 3062 3064 3064 3064 3065 3064 3067 3066 3066 3068 3067 3069 3068 3068 3066 3065 3063 3055 3062 3051 3047 3048 3045 3044 3042 3040 3039
3039 3041 3045 3048 3053 3055 3058 3061 3066 3060 3056 3053 3051 3053 3055 3056 3057 3058 3059 3060 3061 3061 3060 3060 3060 3060 3062 3063 3063 3063 3065 3065 3063 3062 3059 3055 3054 3049 3043 3044 3042 3041 3040 3039 3036
3031 3034 3038 3043 3046 3049 3053 3056 3055 3048 3049 3049 3049 3050 3051 3052 3053 3056 3056 3055 3056 3056 3055 3056 3055 3056 3057 3057 3059 3058 3059 3061 3059 3059 3054 3052 3049 3041 3040 3041 3040 3040 3038 3037 3036
3023 3025 3029 3036 3040 3043 3047 3048 3042 3042 3045 3044 3048 3047 3048 3050 3051 3052 3052 3051 3051 3052 3053 3050 3050 3051 3052 3054 3055 3055 3055 3055 3055 3055 3054 3047 3043 3040 3037 3037 3037 3036 3035 3034 3033
3015 3019 3022 3029 3031 3036 3041 3035 3034 3037 3041 3040 3043 3044 3043 3046 3047 3048 3047 3045 3045 3046 3048 3047 3045 3046 3047 3049 3049 3050 3052 3053 3054 3054 3049 3040 3037 3033 3032 3033 3033 3031 3033 3032 3029
3006 3011 3015 3021 3025 3028 3028 3025 3025 3030 3035 3038 3037 3039 3040 3041 3043 3042 3042 3042 3042 3042 3043 3043 3043 3042 3043 3042 3043 3045 3045 3047 3049 3048 3044 3040 3031 3029 3030 3029 3028 3028 3030 3029 3029
2997 3002 3007 3011 3017 3017 3018 3017 3023 3023 3027 3030 3031 3033 3035 3037 3037 3038 3037 3038 3040 3039 3039 3041 3039 3037 3037 3038 3038 3038 3038 3040 3042 3041 3037 3034 3025 3027 3025 3023 3025 3026 3026 3026 3026
2989 2994 3000 3004 3004 3005 3010 3012 3015 3017 3020 3025 3025 3028 3030 3032 3035 3031 3031 3032 3033 3034 3033 3035 3032 3031 3030 3034 3032 3031 3031 3033 3034 3033 3028 3031 3023 3023 3021 3021 3021 3020 3021 3021 3020
2986 2987 2991 2995 2996 2999 3000 3002 3008 3011 3012 3015 3017 3022 3023 3024 3026 3024 3026 3028 3029 3028 3029 3029 3027 3026 3024 3025 3025 3026 3026 3028 3028 3026 3023 3019 3019 3021 3019 3018 3015 3014 3014 3015 3015
2974 2975 2979 2983 2984 2990 2996 2998 3000 3002 3003 3007 3010 3013 3019 3017 3018 3018 3021 3022 3022 3023 3023 3024 3021 3022 3020 3020 3020 3019 3020 3022 3022 3019 3017 3014 3014 3014 3013 3012 3011 3011 3011 3012 3013
2964 2968 2972 2976 2980 2985 2988 2989 2990 2992 2995 2999 3003 3006 3010 3009 3010 3012 3016 3016 3014 3016 3015 3016 3015 3015 3013 3015 3014 3013 3012 3015 3014 3013 3010 3011 3009 3009 3008 3007 3007 3008 3008 3008 3007
2956 2961 2965 2968 2972 2976 2977 2976 2978 2988 2990 2991 2997 3001 3002 3001 3007 3007 3008 3008 3008 3007 3006 3010 3009 3010 3007 3010 3011 3008 3005 3006 3006 3005 3005 3004 3005 3004 3003 3002 3003 3004 3004 3003 3001
Wind_Speed
24 24 23 22 23 24 24 24 25 26 26 27 27 25 24 20 17 17 17 16 16 13 10 10 11 11 10 11 12 14 19 20 18 17 13 12 15 14 14 14 12 14 15 12 12
23 24 25 25 24 25 26 26 28 30 29 30 28 26 24 20 18 17 19 18 12 7 10 12 11 10 9 13 14 16 23 18 17 18 22 20 20 22 25 21 19 20 15 16 19
30 32 30 36 34 31 32 32 32 31 32 32 29 26 22 18 20 18 11 6 9 17 17 15 13 10 9 13 15 20 25 20 21 21 24 27 24 24 26 27 25 26 24 23 26
38 37 40 37 37 36 35 34 34 32 32 32 29 26 23 18 16 15 20 21 20 19 18 15 15 15 13 16 15 21 22 21 23 23 26 27 29 29 27 25 25 25 26 29 32
37 38 37 39 38 38 36 33 32 32 31 30 28 26 24 20 19 21 24 22 20 17 14 18 20 20 18 17 18 22 22 21 23 25 26 28 30 30 31 20 25 28 32 30 30
36 36 36 35 35 34 33 32 30 29 30 29 28 27 26 22 22 23 21 21 21 19 20 20 21 23 22 22 21 23 24 24 26 26 27 29 30 30 27 26 28 25 24 21 17
37 36 35 34 34 33 31 31 30 28 29 30 29 29 28 23 22 23 23 20 23 22 22 21 22 22 23 21 21 25 27 25 23 21 24 24 32 30 24 17 23 25 23 22 18
36 33 33 32 30 30 30 30 29 28 29 30 30 30 29 26 25 26 20 17 16 16 13 15 19 23 23 22 26 27 27 24 11 11 21 24 33 26 23 24 23 21 17 19 21
34 32 32 31 29 29 30 30 30 29 30 30 31 28 25 18 15 17 16 14 14 16 15 15 22 25 22 21 23 18 19 22 20 15 14 17 32 20 26 30 32 30 26 23 22
32 32 32 30 28 29 29 29 28 30 29 28 32 27 13 11 13 16 23 28 23 21 17 17 22 21 20 20 21 20 20 19 18 16 19 25 37 30 26 26 26 27 30 27 25
31 31 32 30 28 28 26 24 27 31 30 27 28 28 26 29 30 23 26 26 23 23 19 16 24 28 21 19 21 22 22 24 20 17 23 30 39 32 29 27 28 27 28 30 31
30 31 31 30 28 26 23 23 27 31 36 28 27 32 24 28 33 24 28 28 27 26 19 23 29 22 19 21 19 18 24 24 23 19 21 30 41 39 35 33 33 35 34 35 33
30 30 30 28 26 22 18 21 24 25 32 34 30 32 21 27 31 19 28 31 31 27 26 26 17 6 12 14 14 20 24 25 26 24 31 34 41 39 34 36 21 21 27 21 18
29 29 28 25 24 18 17 18 19 19 21 28 19 13 6 5 10 7 22 29 28 23 23 20 23 24 24 25 24 27 21 26 30 27 26 15 21 43 27 19 26 27 24 24 20
28 28 26 24 23 15 17 16 15 13 5 9 6 6 8 5 7 5 6 10 16 21 22 20 19 15 15 18 14 24 24 29 31 26 26 24 11 26 31 19 15 16 13 16 22
28 28 27 25 22 18 17 16 12 7 8 6 7 10 11 8 8 9 6 7 9 16 21 25 22 23 20 15 17 17 20 21 20 24 11 34 16 17 15 7 13 15 18 18 24
31 31 29 27 23 21 17 15 10 10 9 9 15 18 14 10 11 12 10 11 12 10 17 16 18 16 15 18 13 16 15 5 3 2 6 5 8 14 17 10 12 15 14 18 24
33 34 32 29 25 22 16 19 13 21 30 11 12 12 18 17 16 15 20 22 19 18 20 12 9 7 8 10 11 12 15 11 4 3 5 10 9 14 17 11 11 16 20 8 13
35 36 35 29 25 23 21 22 29 35 24 23 25 16 17 18 19 15 21 24 24 20 24 9 10 7 10 16 11 9 13 17 15 8 3 10 12 15 15 14 9 9 9 16 23
35 36 35 28 26 22 29 35 37 39 22 17 16 14 19 19 13 13 17 17 27 29 26 25 23 18 17 19 17 17 13 5 6 3 5 6 12 15 12 11 11 12 7 6 9
34 36 35 29 26 25 37 40 41 41 34 31 27 18 18 17 18 18 9 10 11 16 23 31 30 21 18 22 23 20 19 16 12 8 4 3 7 11 9 10 12 13 8 7 13
31 35 32 27 28 33 40 40 38 39 28 39 38 26 29 33 28 27 25 17 13 15 18 17 13 17 19 21 21 20 22 22 17 8 13 8 15 13 16 12 10 11 17 14 15
33 33 30 24 33 37 39 37 40 41 29 35 36 27 25 32 33 34 32 25 21 22 21 21 14 9 7 17 18 19 24 25 27 28 23 10 8 9 14 17 16 13 12 15 15
32 28 31 31 36 38 45 44 43 43 45 35 31 24 28 34 29 23 20 20 20 19 20 24 26 22 17 13 7 15 19 21 24 23 23 24 25 19 24 22 22 20 20 19 18
37 37 34 23 43 41 42 43 41 44 45 34 35 45 38 31 31 31 29 31 27 29 23 24 26 25 27 25 26 25 22 22 28 32 21 22 26 26 29 22 21 20 21 21 18
40 42 40 37 28 36 42 46 46 44 47 39 40 39 25 34 36 37 35 30 29 22 28 27 27 25 30 29 23 28 24 23 27 28 30 28 24 19 19 22 17 18 20 18 19
38 39 38 39 32 36 42 46 49 48 45 42 36 36 34 39 33 33 30 32 32 30 24 28 31 25 15 15 17 20 26 29 31 28 28 28 27 24 21 20 16 17 20 22 22
Wind_Direction
272 272 271 271 275 282 285 286 288 290 290 292 293 290 291 292 294 293 288 293 292 281 272 269 269 260 259 262 262 260 256 263 272 279 280 271 268 232 244 245 222 235 258 266 261
275 270 277 271 275 282 282 285 290 290 292 292 291 291 293 292 294 286 288 288 280 255 269 275 273 268 264 265 259 257 262 269 273 273 274 267 261 260 250 246 237 238 238 266 264
272 273 272 279 283 282 288 283 284 286 290 289 287 288 289 292 295 298 281 268 267 284 282 284 279 279 277 267 262 261 265 272 265 270 267 269 264 268 271 260 265 269 258 250 265
269 269 272 272 278 282 282 282 282 283 283 283 284 284 285 287 292 286 285 288 285 283 281 284 280 277 276 271 265 264 268 275 276 264 268 271 276 273 278 284 289 291 291 284 274
267 270 272 274 275 275 278 279 280 280 278 278 279 281 283 283 286 284 285 285 286 284 277 281 282 277 269 265 263 268 280 273 277 279 279 287 288 292 282 281 291 295 291 287 281
265 266 269 270 272 273 276 277 276 276 278 277 280 282 284 289 283 282 282 283 282 282 277 278 272 273 272 267 269 274 272 275 273 276 285 289 289 283 285 294 288 284 284 280 288
262 263 265 268 271 272 273 273 273 274 276 279 282 283 286 294 283 285 282 283 280 275 266 264 263 261 266 274 272 272 276 273 276 287 282 277 274 276 277 273 285 279 284 289 274
261 262 264 265 266 269 271 270 270 272 275 278 281 284 287 288 286 280 276 272 273 274 261 256 264 264 264 274 267 272 278 287 311 281 288 276 270 281 280 283 285 285 296 283 270
260 260 261 263 265 267 269 271 274 273 274 279 282 283 294 292 272 270 267 277 279 278 279 255 256 257 264 271 274 277 278 289 297 306 269 264 281 292 293 292 289 290 285 289 278
256 257 260 262 262 263 266 271 274 275 274 279 281 284 288 268 265 273 287 287 289 283 273 262 256 255 259 254 257 286 294 294 294 298 289 282 276 292 299 299 304 296 289 283 279
254 256 258 261 264 266 269 273 275 276 273 273 270 272 279 280 277 286 286 282 286 281 270 254 250 254 279 272 279 279 281 281 286 299 301 300 296 300 304 305 303 303 302 297 287
252 254 257 259 261 265 270 274 272 274 277 271 276 278 277 277 273 275 267 268 270 267 259 249 249 271 265 254 267 271 276 280 295 310 303 300 294 297 300 300 302 297 295 299 297
248 251 254 254 258 261 264 263 270 278 287 285 283 285 275 267 276 271 251 251 253 256 263 260 263 236 260 251 270 268 276 287 296 305 299 300 295 299 305 316 313 304 305 304 278
245 247 250 254 255 257 253 258 271 285 295 293 287 274 261 200 246 247 238 241 246 254 256 265 272 267 257 256 263 275 275 284 289 301 298 292 301 303 311 302 302 303 291 276 266
242 244 245 246 252 249 253 254 262 280 322 274 202 189 189 196 175 258 275 252 260 256 249 252 275 276 256 271 268 270 279 277 286 289 294 287 262 287 301 304 311 303 292 271 257
240 243 244 247 251 246 245 246 243 225 248 247 212 192 195 196 258 254 248 232 228 243 253 261 263 261 263 277 275 281 287 289 278 276 280 288 227 269 293 282 290 287 282 256 225
241 243 244 246 249 249 240 232 213 213 236 246 243 237 213 223 224 221 237 242 235 235 260 273 271 267 260 270 266 262 259 268 284 172 239 249 295 252 276 265 275 274 263 256 230
239 242 246 246 245 244 231 208 214 240 231 244 211 222 229 227 227 229 240 240 236 249 259 266 284 278 283 260 264 268 256 223 235 217 264 264 260 269 265 254 275 288 264 268 311
237 240 241 241 239 238 205 203 227 237 248 243 228 238 233 243 255 241 237 245 247 242 234 226 240 265 277 265 259 256 235 259 252 268 273 253 247 249 240 257 276 268 271 295 307
237 240 241 238 233 221 199 223 239 242 240 247 253 254 261 263 255 235 247 250 247 244 253 255 262 258 256 254 253 247 265 213 200 249 241 242 241 240 229 219 258 250 283 337 354
237 238 239 236 231 211 212 228 242 245 242 241 245 241 240 258 261 272 263 261 269 257 245 248 248 254 250 243 244 239 230 230 242 225 216 287 255 235 227 278 267 268 308 307 323
235 236 236 234 210 219 221 234 245 248 251 249 249 250 252 257 266 269 268 270 272 253 223 234 252 254 259 275 257 249 244 237 225 231 229 255 262 260 269 253 257 292 308 298 300
228 235 232 226 210 220 230 235 240 246 248 248 252 257 260 258 263 266 270 274 272 258 262 262 251 249 294 258 252 242 241 240 242 250 243 235 260 250 276 283 299 277 264 282 287
227 233 230 222 223 222 232 236 236 245 245 237 241 248 260 255 251 264 265 264 264 264 264 261 250 245 237 254 229 231 244 248 241 248 254 238 256 262 278 271 268 267 262 261 267
226 227 233 221 223 224 225 237 241 245 245 246 251 244 248 254 259 263 266 274 265 260 258 253 245 248 249 261 265 269 263 251 247 254 251 273 283 277 270 267 269 264 254 258 266
225 225 230 234 233 232 224 232 236 242 244 242 240 247 243 251 262 269 267 265 265 253 245 243 243 248 253 258 260 269 259 240 252 255 254 268 272 265 260 275 263 251 253 260 274
226 226 230 233 233 234 232 231 239 245 245 247 248 253 255 253 263 268 268 265 259 263 242 238 234 248 253 261 254 262 256 263 262 254 255 259 268 272 273 266 256 260 266 273 275